This is the latest recevied weather packets stored in our database for station/object N8JE-13. If no packets are shown the sender has not sent any weather packets the latest 1 day(s).
| Time | Temp. | Humidity | Pressure | Rain* | Wind** | Luminosity | Snow |
|---|---|---|---|---|---|---|---|
| 1777980651 | 13.33° C | 90% | 1005 hPa | 0.25 mm | 3.58 m/s, 210° | - | - |
| 1777980351 | 13.33° C | 90% | 1004.9 hPa | 0.25 mm | 3.58 m/s, 217° | - | - |
| 1777980051 | 13.33° C | 90% | 1004.6 hPa | 0.25 mm | 3.13 m/s, 210° | - | - |
| 1777979751 | 13.33° C | 91% | 1004.3 hPa | 0.25 mm | 2.68 m/s, 194° | - | - |
| 1777979451 | 13.33° C | 91% | 1004.6 hPa | 0.25 mm | 2.24 m/s, 184° | - | - |
| 1777979151 | 13.33° C | 91% | 1005.1 hPa | 0.25 mm | 2.68 m/s, 207° | - | - |
| 1777978851 | 13.33° C | 91% | 1005.3 hPa | 0.51 mm | 2.68 m/s, 211° | - | - |
| 1777978551 | 13.33° C | 91% | 1005.2 hPa | 0.51 mm | 1.34 m/s, 211° | - | - |
| 1777978250 | 13.33° C | 91% | 1005.2 hPa | 0.51 mm | 2.24 m/s, 215° | - | - |
| 1777977952 | 13.33° C | 91% | 1005.4 hPa | 0.51 mm | 3.13 m/s, 200° | - | - |
| 1777977652 | 13.33° C | 91% | 1005.6 hPa | 0.51 mm | 2.24 m/s, 212° | - | - |
| 1777977352 | 13.33° C | 91% | 1005.8 hPa | 0.51 mm | 2.68 m/s, 216° | - | - |
| 1777977052 | 13.33° C | 91% | 1005.9 hPa | 0.51 mm | 1.34 m/s, 228° | - | - |
| 1777976751 | 13.33° C | 91% | 1005.9 hPa | 1.02 mm | 0.89 m/s, 235° | - | - |
| 1777976451 | 13.33° C | 90% | 1006 hPa | 1.27 mm | 1.34 m/s, 224° | - | - |
| 1777976151 | 13.33° C | 90% | 1006.1 hPa | 1.27 mm | 0.89 m/s, 234° | - | - |
| 1777975852 | 13.33° C | 90% | 1006.3 hPa | 1.27 mm | 0.89 m/s, 230° | - | - |
| 1777975552 | 13.33° C | 89% | 1006.5 hPa | 1.27 mm | 0.89 m/s, 244° | - | - |
| 1777975252 | 13.33° C | 89% | 1006.5 hPa | 1.02 mm | 0.45 m/s, 233° | - | - |
| 1777974951 | 13.89° C | 88% | 1006.5 hPa | 1.02 mm | 0.89 m/s, 246° | - | - |
| 1777974651 | 13.89° C | 88% | 1006.6 hPa | 1.02 mm | 1.34 m/s, 284° | - | - |
| 1777974351 | 13.89° C | 87% | 1006.9 hPa | 1.02 mm | 0.45 m/s, 217° | - | - |
| 1777974051 | 14.44° C | 87% | 1006.9 hPa | 1.02 mm | 0.45 m/s, 291° | - | - |
| 1777973752 | 14.44° C | 85% | 1006.7 hPa | 1.02 mm | 0.89 m/s, 266° | - | - |
| 1777973452 | 15° C | 83% | 1006.7 hPa | 0.76 mm | 0 m/s | - | - |
* Rain latest hour (hover to see other rain measurements)
** Current wind speed in m/s (hover to see current wind gust speed)